Location: Estes Par
(40.3770°N, 105.5210°W)
Time: 23:45:55
(UTC-07:00)

Vanguard 1 - All Passes

Search period start: 17 February 2018 00:00
Search period end: 27 February 2018 00:00
Orbit: 650 x 3833 km, 34.2° (Epoch: 17 February)

Date Brightness Start Highest point End Pass type
(mag) Time Alt. Az. Time Alt. Az. Time Alt. Az.
17 Feb - 13:13:53 10° SSW 13:23:31 21° SSE 13:30:08 10° ESE daylight
17 Feb - 15:35:12 10° SW 15:45:06 40° SSE 15:50:57 10° E daylight
17 Feb - 17:58:33 10° WSW 18:05:25 47° S 18:10:00 10° ESE visible
17 Feb - 20:21:01 10° WSW 20:24:48 22° SSW 20:28:15 10° SSE visible
18 Feb - 13:33:23 10° SSW 13:44:41 28° SSE 13:51:52 10° ESE daylight
18 Feb - 15:56:09 10° WSW 16:06:06 46° S 16:11:52 10° E daylight
18 Feb - 18:19:45 10° W 18:26:15 44° S 18:30:44 10° ESE visible
18 Feb - 20:42:37 10° WSW 20:45:28 16° SSW 20:48:10 10° S visible
19 Feb - 11:35:13 10° S 11:43:14 15° SSE 11:49:34 10° ESE daylight
19 Feb - 13:53:29 10° SW 14:05:50 34° SSE 14:13:11 10° E daylight
19 Feb - 16:17:16 10° WSW 16:27:04 51° S 16:32:44 10° E daylight
19 Feb - 18:40:59 10° W 18:47:03 39° SSW 18:51:22 10° SE visible
19 Feb - 21:05:52 10° SW 21:06:06 10° SSW 21:06:21 10° SSW visible
20 Feb - 11:53:04 10° S 12:04:29 21° SSE 12:12:34 10° ESE daylight
20 Feb - 14:14:01 10° SW 14:26:57 41° SSE 14:34:19 10° E daylight
20 Feb - 16:38:30 10° WSW 16:48:02 54° S 16:53:32 10° ESE daylight
20 Feb - 19:02:16 10° W 19:07:47 31° SSW 19:11:52 10° SE visible
21 Feb - 12:12:07 10° SSW 12:25:42 27° SSE 12:34:34 10° E daylight
21 Feb - 14:34:53 10° SW 14:48:01 48° SSE 14:55:18 10° E daylight
21 Feb - 16:59:49 10° W 17:08:56 53° S 17:14:18 10° ESE daylight
21 Feb - 19:23:43 10° W 19:28:26 24° SSW 19:32:09 10° SSE visible
22 Feb - 10:15:49 10° SSE 10:23:35 14° SE 10:30:07 10° ESE daylight
22 Feb - 12:31:54 10° SSW 12:46:54 34° SSE 12:56:07 10° E daylight
22 Feb - 14:56:00 10° WSW 15:09:05 54° S 15:16:11 10° E daylight
22 Feb - 17:21:10 10° W 17:29:49 50° SSW 17:35:00 10° ESE daylight
22 Feb - 19:45:25 10° WSW 19:49:00 17° SSW 19:52:01 10° S visible
23 Feb - 10:32:30 10° S 10:44:48 20° SE 10:54:08 10° ESE daylight
23 Feb - 12:52:12 10° SW 13:08:05 41° SSE 13:17:22 10° E daylight
23 Feb - 15:17:17 10° WSW 15:30:07 58° S 15:37:02 10° E daylight
23 Feb - 17:42:32 10° W 17:50:36 43° SSW 17:55:37 10° SE daylight
23 Feb - 20:08:12 10° SW 20:09:30 11° SW 20:10:42 10° SSW visible
24 Feb - 10:50:57 10° SSW 11:06:01 26° SSE 11:16:37 10° E daylight
24 Feb - 13:12:52 10° SW 13:29:15 48° SSE 13:38:26 10° E daylight
24 Feb - 15:38:40 10° WSW 15:51:07 60° S 15:57:51 10° ESE daylight
24 Feb - 18:03:57 10° W 18:11:19 36° SSW 18:16:06 10° SE visible
25 Feb - 08:58:57 10° SSE 09:03:27 11° SE 09:07:39 10° SE daylight
25 Feb - 11:10:17 10° SSW 11:27:14 33° SSE 11:38:26 10° E daylight
25 Feb - 13:33:51 10° WSW 13:50:23 54° SSE 13:59:25 10° E daylight
25 Feb - 16:00:08 10° W 16:12:07 59° S 16:18:37 10° ESE daylight
25 Feb - 18:25:29 10° W 18:31:56 28° SSW 18:36:21 10° SSE visible
26 Feb - 09:12:56 10° S 09:24:36 17° SE 09:34:19 10° ESE daylight
26 Feb - 11:30:12 10° SW 11:48:26 40° SSE 11:59:53 10° E daylight
26 Feb - 13:55:04 10° WSW 14:11:31 60° S 14:20:19 10° E daylight
26 Feb - 16:21:38 10° W 16:33:01 55° SSW 16:39:18 10° ESE daylight
26 Feb - 18:47:15 10° W 18:52:25 20° SW 18:56:17 10° S visible
